• In Moldova, Republic
  • List of Countries
  • For 7 days
  • Water Temperature
  • Satellite Maps
  • Weather Map
  • Weather Widgets
  • user-avatar
    Login

    Hourly Weather Brisbane

    Today, 21 July, Friday

    Time Temperature Precipitation Wind Pressure Humidity
    00:00 +11°C° 0 mm 4 mps 761 mmHg 60%
    01:00 +11°C° 0 mm 4 mps 761 mmHg 60%
    02:00 +10°C° 0 mm 4 mps 761 mmHg 61%
    03:00 +10°C° 0 mm 4 mps 761 mmHg 61%
    04:00 +9°C° 0 mm 3 mps 761 mmHg 61%
    05:00 +9°C° 0 mm 3 mps 762 mmHg 62%
    06:00 +8°C° 0 mm 3 mps 762 mmHg 62%
    07:00 +8°C° 0 mm 3 mps 762 mmHg 62%
    08:00 +11°C° 0 mm 3 mps 762 mmHg 53%
    09:00 +14°C° 0 mm 2 mps 763 mmHg 43%
    10:00 +18°C° 0 mm 2 mps 762 mmHg 33%
    11:00 +20°C° 0 mm 2 mps 762 mmHg 29%
    12:00 +21°C° 0 mm 2 mps 762 mmHg 25%
    13:00 +24°C° 0 mm 1 mps 762 mmHg 21%
    14:00 +23°C° 0 mm 2 mps 762 mmHg 25%
    15:00 +23°C° 0 mm 2 mps 762 mmHg 28%
    16:00 +21°C° 0 mm 3 mps 762 mmHg 31%
    17:00 +19°C° 0 mm 3 mps 762 mmHg 39%
    18:00 +16°C° 0 mm 3 mps 763 mmHg 47%
    19:00 +13°C° 0 mm 3 mps 764 mmHg 55%
    20:00 +13°C° 0 mm 3 mps 764 mmHg 57%
    21:00 +12°C° 0 mm 3 mps 764 mmHg 60%
    22:00 +11°C° 0 mm 3 mps 765 mmHg 62%
    23:00 +12°C° 0 mm 2 mps 765 mmHg 63%

    Tomorrow, 22 July, Saturday

    Time Temperature Precipitation Wind Pressure Humidity
    00:00 +10°C° 0 mm 2 mps 765 mmHg 64%
    01:00 +10°C° 0 mm 2 mps 765 mmHg 65%
    02:00 +9°C° 0 mm 2 mps 765 mmHg 66%
    03:00 +9°C° 0 mm 3 mps 765 mmHg 66%
    04:00 +9°C° 0 mm 3 mps 765 mmHg 67%
    05:00 +9°C° 0 mm 3 mps 765 mmHg 67%
    06:00 +9°C° 0 mm 2 mps 766 mmHg 68%
    07:00 +9°C° 0 mm 2 mps 766 mmHg 68%
    08:00 +13°C° 0 mm 2 mps 766 mmHg 60%
    09:00 +16°C° 0 mm 2 mps 766 mmHg 53%
    10:00 +19°C° 0 mm 2 mps 766 mmHg 45%
    11:00 +21°C° 0 mm 1 mps 766 mmHg 42%
    12:00 +22°C° 0 mm 1 mps 765 mmHg 39%
    13:00 +23°C° 0 mm 1 mps 764 mmHg 36%
    14:00 +23°C° 0 mm 1 mps 764 mmHg 38%
    15:00 +22°C° 0 mm 1 mps 764 mmHg 40%
    16:00 +21°C° 0 mm 2 mps 764 mmHg 42%
    17:00 +19°C° 0 mm 2 mps 764 mmHg 51%
    18:00 +18°C° 0 mm 1 mps 765 mmHg 61%
    19:00 +15°C° 0 mm 1 mps 765 mmHg 70%
    20:00 +15°C° 0 mm 1 mps 765 mmHg 74%
    21:00 +14°C° 0 mm 1 mps 765 mmHg 78%
    22:00 +14°C° 0 mm 1 mps 766 mmHg 82%
    23:00 +13°C° 0 mm 1 mps 766 mmHg 84%

    Day after tomorrow, 23 July, Sunday

    Time Temperature Precipitation Wind Pressure Humidity
    00:00 +13°C° 0 mm 1 mps 765 mmHg 86%
    01:00 +12°C° 0 mm 1 mps 765 mmHg 88%
    02:00 +12°C° 0 mm 1 mps 765 mmHg 89%
    03:00 +12°C° 0 mm 2 mps 765 mmHg 89%
    04:00 +12°C° 0 mm 2 mps 764 mmHg 90%
    05:00 +12°C° 0 mm 2 mps 765 mmHg 90%
    06:00 +12°C° 0 mm 2 mps 765 mmHg 90%
    07:00 +12°C° 0 mm 2 mps 766 mmHg 90%
    08:00 +14°C° 0 mm 2 mps 766 mmHg 78%
    09:00 +17°C° 0 mm 2 mps 766 mmHg 67%
    10:00 +20°C° 0 mm 3 mps 766 mmHg 56%
    11:00 +21°C° 0 mm 2 mps 765 mmHg 49%
    12:00 +24°C° 0 mm 2 mps 764 mmHg 42%
    13:00 +25°C° 0 mm 2 mps 763 mmHg 36%
    14:00 +25°C° 0 mm 2 mps 763 mmHg 37%
    15:00 +24°C° 0 mm 2 mps 763 mmHg 39%
    16:00 +24°C° 0 mm 3 mps 762 mmHg 41%
    17:00 +21°C° 0 mm 2 mps 763 mmHg 48%
    18:00 +19°C° 0 mm 2 mps 763 mmHg 55%
    19:00 +17°C° 0 mm 2 mps 764 mmHg 63%
    20:00 +16°C° 0 mm 2 mps 764 mmHg 63%
    21:00 +16°C° 0 mm 2 mps 764 mmHg 64%
    22:00 +15°C° 0 mm 2 mps 764 mmHg 64%
    23:00 +14°C° 0 mm 2 mps 764 mmHg 63%

    24 July, Monday

    Time Temperature Precipitation Wind Pressure Humidity
    00:00 +14°C° 0 mm 2 mps 764 mmHg 61%
    01:00 +13°C° 0 mm 2 mps 764 mmHg 60%
    02:00 +13°C° 0 mm 2 mps 764 mmHg 59%
    03:00 +12°C° 0 mm 2 mps 764 mmHg 58%
    04:00 +12°C° 0 mm 2 mps 763 mmHg 58%
    05:00 +12°C° 0 mm 2 mps 764 mmHg 56%
    06:00 +12°C° 0 mm 2 mps 764 mmHg 55%
    07:00 +11°C° 0 mm 3 mps 765 mmHg 54%
    08:00 +15°C° 0 mm 2 mps 765 mmHg 46%
    09:00 +18°C° 0 mm 2 mps 765 mmHg 39%
    10:00 +21°C° 0 mm 2 mps 765 mmHg 31%
    11:00 +23°C° 0 mm 2 mps 765 mmHg 28%
    12:00 +25°C° 0 mm 1 mps 764 mmHg 25%
    13:00 +27°C° 0 mm 1 mps 763 mmHg 22%
    14:00 +26°C° 0 mm 1 mps 763 mmHg 25%
    15:00 +26°C° 0 mm 2 mps 763 mmHg 28%
    16:00 +25°C° 0 mm 2 mps 763 mmHg 31%
    17:00 +23°C° 0 mm 2 mps 763 mmHg 37%
    18:00 +20°C° 0 mm 1 mps 764 mmHg 42%
    19:00 +18°C° 0 mm 1 mps 765 mmHg 48%
    20:00 +16°C° 0 mm 1 mps 765 mmHg 50%
    21:00 +15°C° 0 mm 1 mps 765 mmHg 52%
    22:00 +15°C° 0 mm 1 mps 766 mmHg 55%
    23:00 +14°C° 0 mm 2 mps 765 mmHg 55%

    25 July, Tuesday

    Time Temperature Precipitation Wind Pressure Humidity
    00:00 +14°C° 0 mm 2 mps 765 mmHg 55%
    01:00 +13°C° 0 mm 2 mps 765 mmHg 55%
    02:00 +13°C° 0 mm 2 mps 765 mmHg 55%
    03:00 +12°C° 0 mm 2 mps 765 mmHg 54%
    04:00 +12°C° 0 mm 2 mps 765 mmHg 54%
    05:00 +12°C° 0 mm 2 mps 765 mmHg 54%
    06:00 +12°C° 0 mm 2 mps 766 mmHg 55%
    07:00 +10°C° 0 mm 2 mps 766 mmHg 55%
    08:00 +14°C° 0 mm 2 mps 766 mmHg 48%
    09:00 +17°C° 0 mm 2 mps 767 mmHg 41%
    10:00 +20°C° 0 mm 2 mps 767 mmHg 34%
    11:00 +23°C° 0 mm 1 mps 766 mmHg 31%
    12:00 +24°C° 0 mm 1 mps 765 mmHg 28%
    13:00 +26°C° 0 mm 1 mps 765 mmHg 25%
    14:00 +25°C° 0 mm 1 mps 764 mmHg 27%
    15:00 +25°C° 0 mm 1 mps 764 mmHg 29%
    16:00 +24°C° 0 mm 1 mps 764 mmHg 31%
    17:00 +22°C° 0 mm 1 mps 764 mmHg 39%
    18:00 +19°C° 0 mm 1 mps 765 mmHg 47%
    19:00 +16°C° 0 mm 1 mps 765 mmHg 55%
    20:00 +15°C° 0 mm 1 mps 765 mmHg 58%
    21:00 +15°C° 0 mm 1 mps 765 mmHg 61%
    22:00 +14°C° 0 mm 1 mps 766 mmHg 64%
    23:00 +14°C° 0 mm 1 mps 765 mmHg 64%

    26 July, Wednesday

    Time Temperature Precipitation Wind Pressure Humidity
    00:00 +13°C° 0 mm 2 mps 765 mmHg 63%
    01:00 +13°C° 0 mm 2 mps 765 mmHg 62%
    02:00 +13°C° 0 mm 2 mps 765 mmHg 61%
    03:00 +13°C° 0 mm 2 mps 765 mmHg 60%
    04:00 +12°C° 0 mm 2 mps 765 mmHg 59%
    05:00 +12°C° 0 mm 2 mps 765 mmHg 59%
    06:00 +13°C° 0 mm 2 mps 765 mmHg 59%
    07:00 +13°C° 0 mm 2 mps 765 mmHg 59%
    08:00 +16°C° 0 mm 2 mps 765 mmHg 51%
    09:00 +19°C° 0 mm 2 mps 765 mmHg 43%
    10:00 +23°C° 0 mm 2 mps 765 mmHg 35%
    11:00 +25°C° 0 mm 2 mps 765 mmHg 32%
    12:00 +26°C° 0 mm 2 mps 764 mmHg 28%
    13:00 +28°C° 0 mm 2 mps 763 mmHg 25%
    14:00 +27°C° 0 mm 2 mps 763 mmHg 27%
    15:00 +27°C° 0 mm 3 mps 762 mmHg 29%
    16:00 +26°C° 0 mm 3 mps 762 mmHg 31%
    17:00 +24°C° 0 mm 3 mps 762 mmHg 36%
    18:00 +21°C° 0 mm 3 mps 763 mmHg 42%
    19:00 +19°C° 0 mm 2 mps 763 mmHg 47%
    20:00 +18°C° 0 mm 2 mps 763 mmHg 48%
    21:00 +17°C° 0 mm 2 mps 763 mmHg 48%
    22:00 +17°C° 0 mm 2 mps 763 mmHg 49%
    23:00 +16°C° 0 mm 3 mps 763 mmHg 49%
    Show more